Location: *
(40.4000°N, 15.1200°E)
Time: 07:32:24
(UTC+00:00)

Cosmos 1980 Rocket - Pass Details

Date: 09 April 2020
Orbit: 829 x 850 km, 71.0° (Epoch: 25 May)

Event Time Altitude Azimuth Distance (km) Brightness Sun altitude
Rises 21:39:08 0° 334° (NNW) 3,388 6.3 -38.1°
Reaches altitude 10° 21:41:35 10° 332° (NNW) 2,454 5.3 -38.3°
Enters shadow 21:44:07 28° 327° (NNW) 1,541 4.0 -38.5°
